STARLINK-34781 (65073 NORAD) Tracking and Keplerian Element Data

This shows tracking and keplerian element data for the satellite.

Feedback or suggestion? Click here.




ElementValue
Catalog65073
NameSTARLINK-34781
Epoch Orbit2279
Epoch Day353.92619451
Epoch Year2025
RAAN68.6861
Inclination97.6044
Eccentricity0.0001229
Argument of Perigee94.1652
Mean Anonmoly265.9715
Mean Motion15.05648572
Decay Rate8.09E-06
L11 65073U 25165T 25353.92619451 .00000809 00000+0 60303-4 0 9997
L22 65073 97.6044 68.6861 0001229 94.1652 265.9715 15.05648572 22797



Live tracking and technical data element details for STARLINK-34781 (NORAD 65073). STARLINK-34781 can be tracked NOW for your location showing map with azimuth and elevation plus other details from your city location.







IsCatalogInMostPopularTable: catalog: 65073, numindb: 3
Update: records affected: 1



GetName: 65073 STARLINK-34781

Hit Count: updated at: Wed, 11 Feb 2026 15:23:55 GMT